BISONSAT

Last updated on Sat Aug 30 2025 00:03:48 GMT+0000 (Coordinated Universal Time)

1 40974U 15058L 25241.12101994 .00023406 00000+0 13560-2 0 9995 2 40974 64.7642 32.0864 0106850 170.6277 189.6872 15.07422024 71453
UTC large
Height (km)
Speed (km/s)
/
Latitude / Longitude
Inclination (degrees)
Orbital Period (minutes)
Azimuth
Elevation
Range (km)
Doppler Factor

Next 0 passes for location: London (51.5072 / 0.1276)

Sorry there are no passes over London.